﻿"﻿平均氣溫 (攝氏度) - ���j�P"
"Mean Temperature (°C) - Wong Tai Sin"
年/Year,月/Month,日/Day,數值/Value,"數據完整性/data Completeness"
2009,4,1,18.4,C
2009,4,2,17.8,C
2009,4,3,18.8,C
2009,4,4,22.3,C
2009,4,5,23.8,C
2009,4,6,18.6,C
2009,4,7,18.4,C
2009,4,8,21.0,C
2009,4,9,20.8,C
2009,4,10,21.2,C
2009,4,11,21.3,C
2009,4,12,22.3,C
2009,4,13,24.0,C
2009,4,14,25.0,C
2009,4,15,23.1,C
2009,4,16,23.1,C
2009,4,17,23.2,C
2009,4,18,22.0,C
2009,4,19,25.2,C
2009,4,20,28.1,C
2009,4,21,25.5,C
2009,4,22,22.1,C
2009,4,23,22.4,C
2009,4,24,23.3,C
2009,4,25,22.8,C
2009,4,26,19.0,C
2009,4,27,21.0,C
2009,4,28,21.7,C
2009,4,29,21.8,C
2009,4,30,22.5,C
2009,5,1,22.9,C
2009,5,2,23.5,C
2009,5,3,23.9,C
2009,5,4,23.2,C
2009,5,5,23.6,C
2009,5,6,22.8,C
2009,5,7,23.9,C
2009,5,8,23.7,C
2009,5,9,24.5,C
2009,5,10,25.3,C
2009,5,11,26.0,C
2009,5,12,26.7,C
2009,5,13,27.2,C
2009,5,14,25.3,C
2009,5,15,25.8,C
2009,5,16,25.6,C
2009,5,17,27.6,C
2009,5,18,28.7,C
2009,5,19,28.4,C
2009,5,20,27.1,C
2009,5,21,27.4,C
2009,5,22,27.9,#
2009,5,23,26.0,C
2009,5,24,25.6,C
2009,5,25,25.2,C
2009,5,26,25.8,C
2009,5,27,25.7,C
2009,5,28,23.8,C
2009,5,29,22.1,C
2009,5,30,25.9,C
2009,5,31,26.4,C
2009,6,1,26.8,C
2009,6,2,27.0,C
2009,6,3,28.0,C
2009,6,4,28.0,C
2009,6,5,28.0,C
2009,6,6,28.9,C
2009,6,7,27.8,C
2009,6,8,27.4,C
2009,6,9,26.6,C
2009,6,10,28.5,C
2009,6,11,26.4,C
2009,6,12,26.9,C
2009,6,13,29.0,C
2009,6,14,27.4,C
2009,6,15,26.6,C
2009,6,16,27.6,C
2009,6,17,28.7,C
2009,6,18,28.9,C
2009,6,19,29.0,C
2009,6,20,30.3,C
2009,6,21,30.4,C
2009,6,22,29.3,C
2009,6,23,30.0,C
2009,6,24,28.7,C
2009,6,25,29.2,C
2009,6,26,27.7,C
2009,6,27,25.9,C
2009,6,28,26.1,C
2009,6,29,28.6,C
2009,6,30,29.5,C
2009,7,1,29.9,C
2009,7,2,29.9,C
2009,7,3,29.6,C
2009,7,4,28.0,C
2009,7,5,26.1,C
2009,7,6,28.0,C
2009,7,7,29.9,C
2009,7,8,30.1,C
2009,7,9,30.5,C
2009,7,10,31.5,C
2009,7,11,28.9,C
2009,7,12,29.5,C
2009,7,13,30.2,#
2009,7,14,29.6,C
2009,7,15,29.1,#
2009,7,16,29.7,#
2009,7,17,30.4,C
2009,7,18,30.0,C
2009,7,19,26.2,C
2009,7,20,28.7,C
2009,7,21,29.3,C
2009,7,22,29.1,C
2009,7,23,28.4,#
2009,7,24,29.3,C
2009,7,25,29.5,C
2009,7,26,29.0,C
2009,7,27,28.4,C
2009,7,28,29.2,C
2009,7,29,29.6,C
2009,7,30,28.7,C
2009,7,31,29.3,C
2009,8,1,30.5,C
2009,8,2,31.4,C
2009,8,3,30.3,C
2009,8,4,27.8,C
2009,8,5,27.2,C
2009,8,6,28.4,C
2009,8,7,30.0,C
2009,8,8,31.3,C
2009,8,9,31.2,C
2009,8,10,29.5,C
2009,8,11,28.2,C
2009,8,12,27.1,C
2009,8,13,26.1,C
2009,8,14,27.8,C
2009,8,15,29.9,C
2009,8,16,30.2,C
2009,8,17,29.2,C
2009,8,18,28.7,C
2009,8,19,29.7,C
2009,8,20,30.2,C
2009,8,21,30.8,C
2009,8,22,30.6,C
2009,8,23,30.5,C
2009,8,24,30.5,C
2009,8,25,29.8,C
2009,8,26,30.0,C
2009,8,27,30.0,C
2009,8,28,30.8,C
2009,8,29,30.5,C
2009,8,30,30.6,C
2009,8,31,29.5,C
2009,9,1,29.7,C
2009,9,2,29.9,C
2009,9,3,30.5,C
2009,9,4,30.4,C
2009,9,5,29.9,C
2009,9,6,29.8,C
2009,9,7,29.8,C
2009,9,8,29.6,C
2009,9,9,28.9,C
2009,9,10,28.8,C
2009,9,11,27.8,C
2009,9,12,28.9,C
2009,9,13,30.0,C
2009,9,14,28.1,C
2009,9,15,26.3,C
2009,9,16,27.7,C
2009,9,17,29.4,C
2009,9,18,30.5,C
2009,9,19,31.3,C
2009,9,20,30.1,C
2009,9,21,29.2,C
2009,9,22,28.3,C
2009,9,23,28.7,C
2009,9,24,29.1,C
2009,9,25,29.0,C
2009,9,26,29.5,C
2009,9,27,29.5,C
2009,9,28,26.5,C
2009,9,29,25.7,C
2009,9,30,26.7,C
2009,10,1,28.1,C
2009,10,2,28.4,C
2009,10,3,28.0,C
2009,10,4,28.0,C
2009,10,5,28.7,C
2009,10,6,28.6,C
2009,10,7,28.2,C
2009,10,8,26.3,C
2009,10,9,26.6,C
2009,10,10,27.2,#
2009,10,11,26.1,C
2009,10,12,25.3,C
2009,10,13,26.8,C
2009,10,14,25.7,#
2009,10,15,25.8,C
2009,10,16,25.6,C
2009,10,17,27.0,C
2009,10,18,25.9,C
2009,10,19,25.9,C
2009,10,20,24.2,C
2009,10,21,24.8,C
2009,10,22,25.2,#
2009,10,23,26.0,C
2009,10,24,26.0,C
2009,10,25,25.3,C
2009,10,26,24.8,C
2009,10,27,24.4,C
2009,10,28,24.7,C
2009,10,29,25.0,C
2009,10,30,24.9,C
2009,10,31,26.3,C
2009,11,1,26.9,C
2009,11,2,23.0,C
2009,11,3,18.2,C
2009,11,4,21.3,C
2009,11,5,23.7,C
2009,11,6,24.4,C
2009,11,7,25.7,C
2009,11,8,25.4,C
2009,11,9,25.9,C
2009,11,10,26.9,C
2009,11,11,26.2,C
2009,11,12,25.5,C
2009,11,13,18.5,C
2009,11,14,16.3,C
2009,11,15,19.6,C
2009,11,16,16.1,C
2009,11,17,11.2,C
2009,11,18,10.9,C
2009,11,19,14.5,C
2009,11,20,14.8,C
2009,11,21,14.2,C
2009,11,22,16.1,C
2009,11,23,19.1,C
2009,11,24,20.8,C
2009,11,25,21.2,C
2009,11,26,21.5,C
2009,11,27,22.5,C
2009,11,28,21.5,C
2009,11,29,21.2,C
2009,11,30,19.7,C
2009,12,1,19.1,C
2009,12,2,20.0,C
2009,12,3,17.6,C
2009,12,4,17.7,C
2009,12,5,18.0,C
2009,12,6,18.9,C
2009,12,7,18.0,C
2009,12,8,19.0,C
2009,12,9,19.8,C
2009,12,10,21.2,C
2009,12,11,21.6,C
2009,12,12,20.2,C
2009,12,13,21.1,C
2009,12,14,19.5,C
2009,12,15,19.1,C
2009,12,16,13.6,C
2009,12,17,11.9,C
2009,12,18,11.7,C
2009,12,19,13.1,C
2009,12,20,14.1,C
2009,12,21,14.9,C
2009,12,22,16.4,C
2009,12,23,18.8,C
2009,12,24,20.6,C
2009,12,25,20.2,C
2009,12,26,17.9,C
2009,12,27,15.1,C
2009,12,28,11.8,C
2009,12,29,16.1,C
2009,12,30,17.5,C
2009,12,31,16.1,C
2010,1,1,16.5,C
2010,1,2,17.9,C
2010,1,3,17.3,C
2010,1,4,18.7,C
2010,1,5,17.4,C
2010,1,6,15.4,C
2010,1,7,12.7,C
2010,1,8,13.1,C
2010,1,9,15.6,C
2010,1,10,18.1,C
2010,1,11,14.9,C
2010,1,12,12.2,C
2010,1,13,13.3,C
2010,1,14,14.8,C
2010,1,15,16.7,C
2010,1,16,17.6,C
2010,1,17,17.0,C
2010,1,18,17.7,C
2010,1,19,18.7,C
2010,1,20,22.7,C
2010,1,21,23.4,C
2010,1,22,18.1,C
2010,1,23,14.8,C
2010,1,24,15.3,C
2010,1,25,18.7,C
2010,1,26,15.5,C
2010,1,27,17.1,C
2010,1,28,19.8,#
2010,1,29,18.5,C
2010,1,30,19.5,C
2010,1,31,22.3,C
2010,2,1,22.2,C
2010,2,2,19.2,C
2010,2,3,18.7,C
2010,2,4,17.6,C
2010,2,5,17.9,C
2010,2,6,18.2,C
2010,2,7,17.6,C
2010,2,8,18.8,C
2010,2,9,22.3,C
2010,2,10,24.3,C
2010,2,11,24.9,C
2010,2,12,15.5,C
2010,2,13,12.4,C
2010,2,14,15.6,C
2010,2,15,11.7,C
2010,2,16,9.3,C
2010,2,17,8.9,C
2010,2,18,8.5,C
2010,2,19,9.2,C
2010,2,20,13.5,C
2010,2,21,16.8,C
2010,2,22,18.6,C
2010,2,23,21.0,C
2010,2,24,22.2,C
2010,2,25,24.1,C
2010,2,26,24.7,C
2010,2,27,25.2,C
2010,2,28,24.1,C
2010,3,1,22.8,C
2010,3,2,24.7,C
2010,3,3,24.8,C
2010,3,4,24.8,C
2010,3,5,25.5,#
2010,3,6,25.7,C
2010,3,7,18.8,C
2010,3,8,16.2,C
2010,3,9,10.2,C
2010,3,10,11.7,C
2010,3,11,15.4,C
2010,3,12,17.3,C
2010,3,13,19.5,C
2010,3,14,21.5,C
2010,3,15,23.8,C
2010,3,16,19.1,C
2010,3,17,19.2,C
2010,3,18,21.4,C
2010,3,19,21.4,C
2010,3,20,22.0,C
2010,3,21,22.3,C
2010,3,22,22.2,C
2010,3,23,23.3,C
2010,3,24,24.7,#
2010,3,25,16.4,C
2010,3,26,17.4,C
2010,3,27,18.4,C
2010,3,28,19.7,#
2010,3,29,18.7,#
2010,3,30,19.3,C
2010,3,31,22.0,#
2010,4,1,23.5,C
2010,4,2,21.4,C
2010,4,3,17.8,C
2010,4,4,18.5,#
2010,4,5,22.2,#
2010,4,6,23.6,C
2010,4,7,19.6,C
2010,4,8,17.2,C
2010,4,9,19.6,C
2010,4,10,20.4,C
2010,4,11,22.5,#
2010,4,12,27.1,#
2010,4,13,24.7,C
2010,4,14,18.8,C
2010,4,15,16.1,C
2010,4,16,16.4,C
2010,4,17,19.1,C
2010,4,18,20.1,C
2010,4,19,22.7,C
2010,4,20,23.9,C
2010,4,21,26.4,C
2010,4,22,24.7,C
2010,4,23,21.1,C
2010,4,24,21.0,C
2010,4,25,20.4,C
2010,4,26,22.2,C
2010,4,27,22.1,C
2010,4,28,23.4,C
2010,4,29,21.1,C
2010,4,30,21.9,C
2010,5,1,23.9,C
2010,5,2,25.1,C
2010,5,3,23.8,C
2010,5,4,24.1,C
2010,5,5,26.2,C
2010,5,6,27.2,C
2010,5,7,25.8,C
2010,5,8,26.3,C
2010,5,9,27.7,C
2010,5,10,24.3,C
2010,5,11,24.3,C
2010,5,12,24.1,C
2010,5,13,24.3,C
2010,5,14,25.5,C
2010,5,15,24.5,C
2010,5,16,25.0,C
2010,5,17,25.7,C
2010,5,18,27.6,C
2010,5,19,25.9,C
2010,5,20,26.4,C
2010,5,21,28.8,C
2010,5,22,28.8,C
2010,5,23,26.5,C
2010,5,24,26.0,C
2010,5,25,26.3,C
2010,5,26,26.7,C
2010,5,27,26.4,C
2010,5,28,27.1,C
2010,5,29,27.4,C
2010,5,30,26.5,C
2010,5,31,24.6,C
2010,6,1,24.3,C
2010,6,2,21.9,C
2010,6,3,23.3,C
2010,6,4,25.2,C
2010,6,5,24.9,C
2010,6,6,25.1,C
2010,6,7,25.5,C
2010,6,8,25.6,C
2010,6,9,25.9,#
2010,6,10,25.8,C
2010,6,11,27.9,C
2010,6,12,28.8,C
2010,6,13,28.7,C
2010,6,14,29.4,C
2010,6,15,29.3,C
2010,6,16,29.3,#
2010,6,17,30.0,C
2010,6,18,30.2,C
2010,6,19,30.1,C
2010,6,20,30.0,C
2010,6,21,30.0,C
2010,6,22,29.3,C
2010,6,23,27.8,C
2010,6,24,28.9,C
2010,6,25,29.1,C
2010,6,26,25.9,#
2010,6,27,25.3,C
2010,6,28,25.8,C
2010,6,29,28.0,C
2010,6,30,29.3,C
2010,7,1,30.2,C
2010,7,2,30.8,C
2010,7,3,30.8,C
2010,7,4,30.7,C
2010,7,5,30.6,C
2010,7,6,30.3,C
2010,7,7,30.7,C
2010,7,8,30.8,C
2010,7,9,30.3,C
2010,7,10,30.1,C
2010,7,11,30.2,C
2010,7,12,30.2,C
2010,7,13,30.1,C
2010,7,14,30.3,C
2010,7,15,29.3,C
2010,7,16,28.1,C
2010,7,17,28.2,C
2010,7,18,29.0,C
2010,7,19,30.0,C
2010,7,20,29.9,C
2010,7,21,27.8,C
2010,7,22,27.6,C
2010,7,23,27.8,C
2010,7,24,29.0,C
2010,7,25,29.8,C
2010,7,26,29.7,C
2010,7,27,28.3,C
2010,7,28,26.4,C
2010,7,29,28.1,C
2010,7,30,29.9,C
2010,7,31,30.2,C
2010,8,1,30.4,C
2010,8,2,30.0,C
2010,8,3,30.1,C
2010,8,4,31.0,C
2010,8,5,29.6,C
2010,8,6,28.7,C
2010,8,7,29.1,C
2010,8,8,29.3,C
2010,8,9,29.8,C
2010,8,10,30.3,C
2010,8,11,29.1,C
2010,8,12,29.9,C
2010,8,13,30.3,C
2010,8,14,29.7,C
2010,8,15,28.7,C
2010,8,16,27.3,C
2010,8,17,28.3,C
2010,8,18,28.7,C
2010,8,19,28.4,C
2010,8,20,28.8,C
2010,8,21,30.0,C
2010,8,22,29.3,C
2010,8,23,28.5,C
2010,8,24,26.8,C
2010,8,25,28.5,C
2010,8,26,28.4,C
2010,8,27,29.3,C
2010,8,28,28.2,C
2010,8,29,29.9,C
2010,8,30,30.7,C
2010,8,31,31.0,C
2010,9,1,31.8,C
2010,9,2,30.2,C
2010,9,3,26.2,C
2010,9,4,27.4,C
2010,9,5,28.9,C
2010,9,6,30.0,C
2010,9,7,30.3,C
2010,9,8,31.1,C
2010,9,9,29.2,C
2010,9,10,29.1,C
2010,9,11,25.5,C
2010,9,12,25.5,C
2010,9,13,27.3,C
2010,9,14,28.0,#
2010,9,15,28.5,C
2010,9,16,28.9,C
2010,9,17,29.6,C
2010,9,18,30.4,C
2010,9,19,31.6,C
2010,9,20,28.4,C
2010,9,21,24.3,C
2010,9,22,26.0,C
2010,9,23,27.8,C
2010,9,24,28.1,C
2010,9,25,27.9,C
2010,9,26,28.0,C
2010,9,27,29.0,C
2010,9,28,29.1,C
2010,9,29,28.6,C
2010,9,30,28.2,C
2010,10,1,27.9,C
2010,10,2,29.1,C
2010,10,3,28.5,C
2010,10,4,25.4,C
2010,10,5,24.5,C
2010,10,6,24.6,C
2010,10,7,25.7,C
2010,10,8,26.6,C
2010,10,9,26.0,C
2010,10,10,25.6,C
2010,10,11,26.3,C
2010,10,12,28.2,C
2010,10,13,28.1,C
2010,10,14,28.2,C
2010,10,15,26.0,C
2010,10,16,25.4,C
2010,10,17,26.5,C
2010,10,18,26.8,C
2010,10,19,26.5,C
2010,10,20,26.9,C
2010,10,21,25.4,C
2010,10,22,23.1,C
2010,10,23,25.1,C
2010,10,24,25.5,C
2010,10,25,25.2,C
2010,10,26,21.8,C
2010,10,27,19.7,C
2010,10,28,18.7,C
2010,10,29,19.3,C
2010,10,30,19.5,C
2010,10,31,20.0,C
2010,11,1,21.4,C
2010,11,2,21.8,C
2010,11,3,21.4,C
2010,11,4,19.9,C
2010,11,5,17.6,C
2010,11,6,18.7,C
2010,11,7,22.2,C
2010,11,8,22.7,C
2010,11,9,22.3,C
2010,11,10,21.5,C
2010,11,11,22.1,C
2010,11,12,21.9,C
2010,11,13,23.1,C
2010,11,14,23.1,C
2010,11,15,23.8,C
2010,11,16,21.9,C
2010,11,17,21.3,C
2010,11,18,21.8,C
2010,11,19,21.9,C
2010,11,20,21.0,C
2010,11,21,22.1,C
2010,11,22,22.7,C
2010,11,23,21.5,C
2010,11,24,20.9,C
2010,11,25,20.6,C
2010,11,26,20.1,C
2010,11,27,20.3,C
2010,11,28,21.6,C
2010,11,29,20.9,C
2010,11,30,22.2,C
2010,12,1,20.7,C
2010,12,2,21.9,C
2010,12,3,21.4,C
2010,12,4,20.9,C
2010,12,5,22.4,C
2010,12,6,24.1,C
2010,12,7,19.1,C
2010,12,8,16.9,C
2010,12,9,17.5,C
2010,12,10,19.4,C
2010,12,11,20.2,C
2010,12,12,20.1,C
2010,12,13,22.4,C
2010,12,14,21.8,C
2010,12,15,17.0,C
2010,12,16,8.1,C
2010,12,17,10.6,C
2010,12,18,14.3,C
2010,12,19,18.7,C
2010,12,20,20.1,C
2010,12,21,20.2,C
2010,12,22,19.9,C
2010,12,23,18.6,C
2010,12,24,18.8,C
2010,12,25,15.5,C
2010,12,26,12.7,C
2010,12,27,13.1,C
2010,12,28,15.3,C
2010,12,29,17.1,C
2010,12,30,18.2,C
2010,12,31,15.9,C
2011,1,1,14.9,C
2011,1,2,14.7,C
2011,1,3,12.8,C
2011,1,4,12.7,C
2011,1,5,15.8,C
2011,1,6,13.6,C
2011,1,7,10.0,C
2011,1,8,12.8,C
2011,1,9,14.7,C
2011,1,10,13.3,C
2011,1,11,10.3,C
2011,1,12,7.9,C
2011,1,13,13.1,C
2011,1,14,16.9,C
2011,1,15,13.8,C
2011,1,16,11.0,C
2011,1,17,11.9,C
2011,1,18,14.7,C
2011,1,19,15.7,C
2011,1,20,16.0,C
2011,1,21,13.3,C
2011,1,22,12.8,C
2011,1,23,15.8,C
2011,1,24,14.0,C
2011,1,25,14.6,C
2011,1,26,15.3,C
2011,1,27,16.3,C
2011,1,28,14.9,C
2011,1,29,12.6,C
2011,1,30,11.9,C
2011,1,31,13.0,C
2011,2,1,14.5,C
2011,2,2,15.4,C
2011,2,3,15.5,C
2011,2,4,16.1,C
2011,2,5,17.3,C
2011,2,6,18.7,C
2011,2,7,19.3,C
2011,2,8,20.5,C
2011,2,9,20.4,C
2011,2,10,18.4,C
2011,2,11,16.2,C
2011,2,12,13.6,C
2011,2,13,12.2,C
2011,2,14,10.1,C
2011,2,15,11.1,C
2011,2,16,13.6,C
2011,2,17,16.2,C
2011,2,18,15.0,C
2011,2,19,12.7,C
2011,2,20,14.3,C
2011,2,21,15.4,C
2011,2,22,16.1,C
2011,2,23,18.2,C
2011,2,24,18.7,C
2011,2,25,19.4,C
2011,2,26,19.0,C
2011,2,27,21.2,C
2011,2,28,21.8,C
2011,3,1,21.4,C
2011,3,2,18.2,C
2011,3,3,18.1,C
2011,3,4,16.4,C
2011,3,5,16.7,C
2011,3,6,19.7,C
2011,3,7,19.6,C
2011,3,8,15.2,C
2011,3,9,15.7,C
2011,3,10,16.8,C
2011,3,11,17.3,C
2011,3,12,19.3,C
2011,3,13,20.8,C
2011,3,14,22.9,C
2011,3,15,18.6,C
2011,3,16,15.3,C
2011,3,17,16.0,C
2011,3,18,15.2,C
2011,3,19,17.4,C
2011,3,20,20.6,C
2011,3,21,23.2,C
2011,3,22,19.6,C
2011,3,23,15.5,C
2011,3,24,16.4,C
2011,3,25,17.3,C
2011,3,26,17.5,C
2011,3,27,14.6,C
2011,3,28,17.0,C
2011,3,29,18.6,C
2011,3,30,18.3,#
2011,3,31,19.5,C
2011,4,1,20.8,C
2011,4,2,22.4,C
2011,4,3,22.5,C
2011,4,4,19.2,C
2011,4,5,18.2,C
2011,4,6,19.6,C
2011,4,7,22.1,C
2011,4,8,23.2,C
2011,4,9,22.3,C
2011,4,10,23.8,C
2011,4,11,24.7,C
2011,4,12,21.4,C
2011,4,13,23.2,C
2011,4,14,24.0,C
2011,4,15,24.6,C
2011,4,16,25.4,C
2011,4,17,25.1,C
2011,4,18,24.0,C
2011,4,19,24.1,C
2011,4,20,21.6,C
2011,4,21,23.0,C
2011,4,22,24.5,C
2011,4,23,21.2,C
2011,4,24,23.6,C
2011,4,25,23.9,C
2011,4,26,24.5,C
2011,4,27,26.3,C
2011,4,28,25.2,C
2011,4,29,23.4,C
2011,4,30,25.1,C
2011,5,1,26.1,C
2011,5,2,26.9,C
2011,5,3,27.6,C
2011,5,4,26.0,C
2011,5,5,23.8,C
2011,5,6,26.5,C
2011,5,7,27.2,C
2011,5,8,26.9,C
2011,5,9,27.9,#
2011,5,10,28.7,C
2011,5,11,29.5,C
2011,5,12,29.7,C
2011,5,13,27.4,C
2011,5,14,24.8,C
2011,5,15,24.8,C
2011,5,16,25.8,C
2011,5,17,23.4,C
2011,5,18,25.0,C
2011,5,19,26.0,C
2011,5,20,27.0,C
2011,5,21,26.2,C
2011,5,22,25.1,C
2011,5,23,24.5,C
2011,5,24,22.3,C
2011,5,25,22.8,C
2011,5,26,25.8,C
2011,5,27,26.9,C
2011,5,28,27.8,C
2011,5,29,26.3,C
2011,5,30,25.6,C
2011,5,31,26.8,#
2011,6,1,29.5,#
2011,6,2,28.0,C
2011,6,3,28.2,C
2011,6,4,28.7,C
2011,6,5,29.4,C
2011,6,6,29.5,C
2011,6,7,29.9,C
2011,6,8,29.5,C
2011,6,9,29.5,C
2011,6,10,29.6,C
2011,6,11,28.6,C
2011,6,12,27.6,C
2011,6,13,29.2,C
2011,6,14,29.7,C
2011,6,15,29.4,C
2011,6,16,26.7,C
2011,6,17,27.3,C
2011,6,18,28.9,C
2011,6,19,29.8,#
2011,6,20,30.1,C
2011,6,21,29.4,C
2011,6,22,26.8,C
2011,6,23,28.3,C
2011,6,24,29.0,C
2011,6,25,29.8,C
2011,6,26,29.3,C
2011,6,27,29.9,C
2011,6,28,26.4,C
2011,6,29,26.3,C
2011,6,30,27.0,C
2011,7,1,28.0,C
2011,7,2,28.9,C
2011,7,3,29.7,C
2011,7,4,30.2,C
2011,7,5,30.4,C
2011,7,6,30.2,C
2011,7,7,30.5,C
2011,7,8,30.9,C
2011,7,9,30.6,C
2011,7,10,30.4,C
2011,7,11,29.2,C
2011,7,12,27.8,C
2011,7,13,27.5,C
2011,7,14,27.3,C
2011,7,15,26.7,C
2011,7,16,26.5,C
2011,7,17,28.2,C
2011,7,18,28.6,C
2011,7,19,27.8,C
2011,7,20,27.0,C
2011,7,21,29.2,C
2011,7,22,29.7,C
2011,7,23,30.3,C
2011,7,24,30.2,C
2011,7,25,30.9,C
2011,7,26,29.8,C
2011,7,27,30.0,C
2011,7,28,30.0,C
2011,7,29,28.2,C
2011,7,30,28.3,C
2011,7,31,29.2,C
2011,8,1,29.5,C
2011,8,2,30.1,C
2011,8,3,30.1,C
2011,8,4,30.3,C
2011,8,5,30.2,C
2011,8,6,31.0,C
2011,8,7,31.2,C
2011,8,8,29.9,C
2011,8,9,27.6,C
2011,8,10,26.2,C
2011,8,11,28.8,C
2011,8,12,29.5,C
2011,8,13,30.0,C
2011,8,14,30.1,C
2011,8,15,30.5,C
2011,8,16,29.8,C
2011,8,17,28.9,C
2011,8,18,29.3,C
2011,8,19,29.7,C
2011,8,20,29.4,C
2011,8,21,30.1,C
2011,8,22,28.7,C
2011,8,23,30.3,C
2011,8,24,30.7,C
2011,8,25,28.9,C
2011,8,26,29.4,C
2011,8,27,30.3,C
2011,8,28,31.4,C
2011,8,29,31.8,C
2011,8,30,31.9,C
2011,8,31,30.9,C
2011,9,1,28.3,C
2011,9,2,29.2,C
2011,9,3,27.9,C
2011,9,4,28.5,C
2011,9,5,29.4,C
2011,9,6,29.0,C
2011,9,7,29.1,C
2011,9,8,29.3,C
2011,9,9,29.6,C
2011,9,10,29.4,C
2011,9,11,28.6,C
2011,9,12,28.7,C
2011,9,13,29.1,C
2011,9,14,29.4,C
2011,9,15,28.6,C
2011,9,16,28.5,C
2011,9,17,29.2,C
2011,9,18,28.7,C
2011,9,19,28.3,C
2011,9,20,25.9,C
2011,9,21,26.1,C
2011,9,22,25.8,C
2011,9,23,25.5,C
2011,9,24,25.6,C
2011,9,25,25.1,C
2011,9,26,27.3,C
2011,9,27,28.2,C
2011,9,28,29.0,C
2011,9,29,27.5,C
2011,9,30,28.1,C
2011,10,1,26.3,#
2011,10,2,25.1,C
2011,10,3,22.5,C
2011,10,4,23.7,C
2011,10,5,24.6,C
2011,10,6,25.4,C
2011,10,7,25.7,C
2011,10,8,26.3,C
2011,10,9,27.1,C
2011,10,10,26.4,C
2011,10,11,24.8,C
2011,10,12,24.7,C
2011,10,13,25.2,C
2011,10,14,25.7,C
2011,10,15,25.3,C
2011,10,16,26.0,C
2011,10,17,25.7,C
2011,10,18,24.8,C
2011,10,19,24.2,C
2011,10,20,24.2,C
2011,10,21,25.0,C
2011,10,22,25.3,C
2011,10,23,25.0,C
2011,10,24,25.8,C
2011,10,25,24.2,C
2011,10,26,22.9,C
2011,10,27,23.3,C
2011,10,28,24.7,C
2011,10,29,24.4,C
2011,10,30,24.4,C
2011,10,31,24.5,C
2011,11,1,24.9,C
2011,11,2,25.8,C
2011,11,3,26.2,C
2011,11,4,27.0,C
2011,11,5,26.9,C
2011,11,6,26.8,C
2011,11,7,25.7,C
2011,11,8,22.7,C
2011,11,9,19.7,C
2011,11,10,19.1,C
2011,11,11,20.0,C
2011,11,12,22.0,C
2011,11,13,23.6,C
2011,11,14,23.7,C
2011,11,15,23.9,C
2011,11,16,23.8,C
2011,11,17,23.7,C
2011,11,18,25.0,C
2011,11,19,25.4,C
2011,11,20,23.1,C
2011,11,21,21.4,C
2011,11,22,22.3,C
2011,11,23,22.7,C
2011,11,24,21.1,C
2011,11,25,20.4,C
2011,11,26,21.2,C
2011,11,27,22.3,C
2011,11,28,22.2,C
2011,11,29,23.2,C
2011,11,30,23.8,C
2011,12,1,18.2,C
2011,12,2,14.6,C
2011,12,3,15.1,C
2011,12,4,18.3,C
2011,12,5,19.2,C
2011,12,6,20.7,C
2011,12,7,23.5,C
2011,12,8,20.4,C
2011,12,9,14.1,C
2011,12,10,13.4,C
2011,12,11,13.2,C
2011,12,12,15.8,C
2011,12,13,17.6,C
2011,12,14,19.6,C
2011,12,15,19.5,C
2011,12,16,17.0,C
2011,12,17,15.9,C
2011,12,18,16.6,C
2011,12,19,17.3,C
2011,12,20,17.5,C
2011,12,21,19.9,C
2011,12,22,18.0,C
2011,12,23,14.6,C
2011,12,24,13.0,C
2011,12,25,13.7,C
2011,12,26,15.9,C
2011,12,27,16.8,C
2011,12,28,17.6,C
2011,12,29,18.3,C
2011,12,30,17.8,C
2011,12,31,17.2,C
2012,1,1,17.7,C
2012,1,2,16.6,C
2012,1,3,17.1,C
2012,1,4,12.8,C
2012,1,5,10.1,C
2012,1,6,12.6,C
2012,1,7,13.5,C
2012,1,8,16.0,C
2012,1,9,16.3,C
2012,1,10,15.7,C
2012,1,11,16.0,C
2012,1,12,15.3,C
2012,1,13,16.2,C
2012,1,14,18.1,C
2012,1,15,17.3,C
2012,1,16,15.9,C
2012,1,17,17.1,C
2012,1,18,18.7,C
2012,1,19,20.3,C
2012,1,20,17.3,C
2012,1,21,16.5,C
2012,1,22,12.6,C
2012,1,23,9.9,C
2012,1,24,10.3,C
2012,1,25,7.8,C
2012,1,26,11.4,C
2012,1,27,15.5,C
2012,1,28,17.9,C
2012,1,29,16.2,C
2012,1,30,16.3,C
2012,1,31,15.5,C
2012,2,1,15.7,C
2012,2,2,16.0,C
2012,2,3,14.0,C
2012,2,4,15.7,C
2012,2,5,18.6,C
2012,2,6,19.3,C
2012,2,7,16.8,C
2012,2,8,11.9,C
2012,2,9,12.4,C
2012,2,10,15.0,C
2012,2,11,14.0,C
2012,2,12,16.6,C
2012,2,13,19.9,C
2012,2,14,20.1,C
2012,2,15,19.7,C
2012,2,16,16.3,C
2012,2,17,14.6,C
2012,2,18,13.3,C
2012,2,19,14.2,C
2012,2,20,15.5,C
2012,2,21,18.6,C
2012,2,22,19.2,C
2012,2,23,20.2,C
2012,2,24,18.8,C
2012,2,25,16.8,C
2012,2,26,13.2,C
2012,2,27,11.4,C
2012,2,28,13.1,C
2012,2,29,15.5,C
2012,3,1,17.9,C
2012,3,2,22.0,C
2012,3,3,18.7,C
2012,3,4,19.7,C
2012,3,5,22.4,C
2012,3,6,24.0,C
2012,3,7,19.5,C
2012,3,8,17.7,C
2012,3,9,15.3,C
2012,3,10,13.4,C
2012,3,11,12.3,C
2012,3,12,12.6,C
2012,3,13,14.4,C
2012,3,14,17.0,C
2012,3,15,18.8,C
2012,3,16,20.9,C
2012,3,17,22.9,C
2012,3,18,24.1,C
2012,3,19,21.0,C
2012,3,20,21.1,C
2012,3,21,18.4,C
2012,3,22,21.4,C
2012,3,23,21.6,C
2012,3,24,17.4,C
2012,3,25,18.5,C
2012,3,26,20.1,C
2012,3,27,21.0,C
2012,3,28,21.4,C
2012,3,29,22.7,C
2012,3,30,23.7,C
2012,3,31,22.1,C
2012,4,1,20.5,C
2012,4,2,22.5,C
2012,4,3,25.3,C
2012,4,4,22.0,C
2012,4,5,21.6,C
2012,4,6,20.3,C
2012,4,7,21.1,C
2012,4,8,21.5,C
2012,4,9,23.4,C
2012,4,10,24.6,C
2012,4,11,27.1,#
2012,4,12,26.1,C
2012,4,13,26.5,C
2012,4,14,27.0,C
2012,4,15,27.3,C
2012,4,16,26.3,C
2012,4,17,21.4,C
2012,4,18,22.4,C
2012,4,19,22.8,C
2012,4,20,21.8,C
2012,4,21,23.3,C
2012,4,22,24.7,C
2012,4,23,25.5,C
2012,4,24,27.1,C
2012,4,25,27.6,C
2012,4,26,24.8,C
2012,4,27,22.5,C
2012,4,28,24.2,C
2012,4,29,27.1,C
2012,4,30,28.2,C
2012,5,1,28.6,C
2012,5,2,29.2,C
2012,5,3,29.1,C
2012,5,4,27.9,C
2012,5,5,25.0,C
2012,5,6,26.2,C
2012,5,7,27.0,C
2012,5,8,29.0,C
2012,5,9,29.8,C
2012,5,10,29.8,C
2012,5,11,26.0,C
2012,5,12,26.4,C
2012,5,13,28.3,C
2012,5,14,29.3,C
2012,5,15,28.4,C
2012,5,16,26.9,C
2012,5,17,27.4,C
2012,5,18,25.6,C
2012,5,19,26.9,C
2012,5,20,27.2,C
2012,5,21,25.9,C
2012,5,22,25.5,C
2012,5,23,25.8,C
2012,5,24,26.6,C
2012,5,25,27.9,C
2012,5,26,26.9,C
2012,5,27,26.7,C
2012,5,28,25.5,C
2012,5,29,25.8,C
2012,5,30,27.1,C
2012,5,31,27.1,C
2012,6,1,26.0,C
2012,6,2,26.8,C
2012,6,3,25.7,C
2012,6,4,27.0,C
2012,6,5,28.4,C
2012,6,6,28.5,C
2012,6,7,28.7,C
2012,6,8,29.5,C
2012,6,9,29.3,C
2012,6,10,28.9,C
2012,6,11,29.4,C
2012,6,12,29.6,C
2012,6,13,26.2,C
2012,6,14,27.7,C
2012,6,15,28.1,C
2012,6,16,26.3,C
2012,6,17,27.3,C
2012,6,18,27.3,C
2012,6,19,28.8,C
2012,6,20,30.5,C
2012,6,21,28.0,C
2012,6,22,28.2,C
2012,6,23,28.8,C
2012,6,24,28.7,C
2012,6,25,28.5,C
2012,6,26,28.9,C
2012,6,27,29.2,C
2012,6,28,29.5,C
2012,6,29,29.5,C
2012,6,30,26.8,C
2012,7,1,28.2,C
2012,7,2,28.5,C
2012,7,3,29.1,C
2012,7,4,29.3,C
2012,7,5,27.8,C
2012,7,6,28.8,C
2012,7,7,29.0,C
2012,7,8,29.1,C
2012,7,9,29.8,C
2012,7,10,30.4,C
2012,7,11,30.4,C
2012,7,12,30.3,C
2012,7,13,29.0,C
2012,7,14,29.6,C
2012,7,15,30.4,C
2012,7,16,29.3,C
2012,7,17,29.8,C
2012,7,18,28.8,C
2012,7,19,30.5,C
2012,7,20,30.5,C
2012,7,21,31.1,C
2012,7,22,28.6,C
2012,7,23,26.5,C
2012,7,24,26.7,C
2012,7,25,25.5,C
2012,7,26,25.3,C
2012,7,27,25.9,C
2012,7,28,27.4,C
2012,7,29,28.9,C
2012,7,30,29.8,C
2012,7,31,29.3,C
2012,8,1,31.1,C
2012,8,2,32.2,C
2012,8,3,31.2,C
2012,8,4,29.9,C
2012,8,5,29.4,C
2012,8,6,29.0,C
2012,8,7,30.3,C
2012,8,8,31.1,C
2012,8,9,30.9,C
2012,8,10,29.8,C
2012,8,11,27.5,C
2012,8,12,27.7,C
2012,8,13,27.7,C
2012,8,14,28.7,C
2012,8,15,30.2,C
2012,8,16,28.7,C
2012,8,17,28.3,C
2012,8,18,28.9,C
2012,8,19,28.9,C
2012,8,20,29.5,C
2012,8,21,29.3,C
2012,8,22,28.4,C
2012,8,23,29.1,C
2012,8,24,30.4,C
2012,8,25,30.3,C
2012,8,26,30.4,C
2012,8,27,31.1,C
2012,8,28,30.5,C
2012,8,29,30.3,C
2012,8,30,30.1,C
2012,8,31,28.4,C
2012,9,1,28.0,C
2012,9,2,28.7,C
2012,9,3,29.1,C
2012,9,4,27.4,C
2012,9,5,28.4,C
2012,9,6,29.4,#
2012,9,7,28.6,C
2012,9,8,28.4,C
2012,9,9,29.3,C
2012,9,10,29.5,C
2012,9,11,29.6,C
2012,9,12,29.0,C
2012,9,13,28.7,C
2012,9,14,26.5,C
2012,9,15,26.4,C
2012,9,16,27.1,C
2012,9,17,26.8,C
2012,9,18,26.9,C
2012,9,19,26.4,C
2012,9,20,27.1,C
2012,9,21,27.5,C
2012,9,22,28.2,C
2012,9,23,28.6,C
2012,9,24,27.9,C
2012,9,25,27.0,C
2012,9,26,27.1,C
2012,9,27,28.3,C
2012,9,28,28.6,C
2012,9,29,27.6,C
2012,9,30,25.9,C
2012,10,1,25.9,C
2012,10,2,26.0,C
2012,10,3,25.5,C
2012,10,4,25.5,C
2012,10,5,26.3,C
2012,10,6,26.6,C
2012,10,7,26.6,C
2012,10,8,26.3,C
2012,10,9,26.3,C
2012,10,10,26.5,C
2012,10,11,25.4,C
2012,10,12,24.9,C
2012,10,13,25.1,C
2012,10,14,25.6,C
2012,10,15,26.1,C
2012,10,16,25.9,C
2012,10,17,25.9,C
2012,10,18,24.1,C
2012,10,19,24.3,C
2012,10,20,24.5,C
2012,10,21,24.7,C
2012,10,22,25.6,C
2012,10,23,26.0,C
2012,10,24,25.2,C
2012,10,25,25.8,C
2012,10,26,25.0,C
2012,10,27,26.2,C
2012,10,28,26.3,C
2012,10,29,25.0,C
2012,10,30,23.1,C
2012,10,31,20.2,C
2012,11,1,21.4,C
2012,11,2,23.1,C
2012,11,3,23.6,C
2012,11,4,24.4,C
2012,11,5,24.4,C
2012,11,6,24.0,C
2012,11,7,23.1,C
2012,11,8,23.6,C
2012,11,9,25.2,C
2012,11,10,25.9,C
2012,11,11,21.8,C
2012,11,12,21.8,C
2012,11,13,23.4,C
2012,11,14,23.1,C
2012,11,15,22.9,C
2012,11,16,23.3,C
2012,11,17,20.2,#
2012,11,18,19.7,C
2012,11,19,22.0,C
2012,11,20,22.0,C
2012,11,21,22.6,C
2012,11,22,25.4,C
2012,11,23,22.2,#
2012,11,24,19.0,#
2012,11,25,21.4,C
2012,11,26,18.6,C
2012,11,27,16.1,C
2012,11,28,19.7,C
2012,11,29,20.4,C
2012,11,30,21.5,C
2012,12,1,21.2,C
2012,12,2,17.9,C
2012,12,3,16.6,C
2012,12,4,17.1,C
2012,12,5,16.1,C
2012,12,6,17.0,C
2012,12,7,18.7,C
2012,12,8,19.1,C
2012,12,9,19.5,C
2012,12,10,18.6,C
2012,12,11,18.6,C
2012,12,12,17.9,C
2012,12,13,19.5,C
2012,12,14,21.8,C
2012,12,15,22.7,C
2012,12,16,24.0,C
2012,12,17,21.5,C
2012,12,18,16.4,C
2012,12,19,14.8,C
2012,12,20,18.0,C
2012,12,21,21.4,C
2012,12,22,18.3,C
2012,12,23,12.9,C
2012,12,24,13.1,C
2012,12,25,17.3,C
2012,12,26,19.2,C
2012,12,27,18.3,C
2012,12,28,20.7,C
2012,12,29,18.1,C
2012,12,30,9.9,C
2012,12,31,10.3,C
2013,1,1,14.3,C
2013,1,2,17.4,C
2013,1,3,16.9,C
2013,1,4,11.9,C
2013,1,5,14.6,C
2013,1,6,15.4,C
2013,1,7,16.3,C
2013,1,8,18.0,C
2013,1,9,16.0,C
2013,1,10,14.2,C
2013,1,11,16.6,C
2013,1,12,16.6,C
2013,1,13,17.2,C
2013,1,14,16.3,C
2013,1,15,15.7,C
2013,1,16,17.5,C
2013,1,17,17.4,C
2013,1,18,14.0,C
2013,1,19,15.3,C
2013,1,20,18.5,C
2013,1,21,21.3,C
2013,1,22,21.8,C
2013,1,23,18.2,C
2013,1,24,19.2,C
2013,1,25,18.3,C
2013,1,26,17.8,C
2013,1,27,16.2,C
2013,1,28,16.4,C
2013,1,29,18.5,C
2013,1,30,18.4,C
2013,1,31,19.2,C
2013,2,1,21.4,C
2013,2,2,21.1,C
2013,2,3,19.5,C
2013,2,4,21.7,C
2013,2,5,22.9,C
2013,2,6,22.0,C